Flag for Germany Weather past 2 weeks in Lübeck, Schleswig-Holstein, Germany

Now
50 °F

Clear.


Feels Like: 48 °F
Forecast: 52 / 59 °F
Wind: 6 mph from Southwest

Location: Luebeck-Blankensee

Current Time: Sep 4, 2015 at 8:25:07 AM

Latest Report: Sep 4, 2015 at 7:50 AM


Visibility: 5 mi

Pressure: 29.89 "Hg

Humidity: 94%

Dew point: 48 °F

Location of LübeckLocation

Historic Weather in Lübeck — Graph

°F

Lübeck temperature yesterday

Maximum temperature yesterday: 64 °F (at 2:50 PM)
Minimum temperature yesterday: 48 °F (at 6:50 AM)
Average temperature yesterday: 58 °F

Past Weeks' High & Low Weather Summary

 TemperatureHumidityPressure
High81 °F (Aug 31, 3:50 PM)100% (Aug 20, 7:20 AM)30.30 "Hg (Aug 20, 7:20 AM)
Low48 °F (Aug 21, 6:50 AM)30% (Aug 21, 3:50 PM)29.62 "Hg (Aug 24, 7:50 PM)
Average66 °F72%29.97 "Hg
* Reported Aug 20 7:20 AM — Sep 4 7:20 AM, Lübeck, Weather by CustomWeather, © 2015

Note: Actual official high and low records may vary slightly from our data, if they occured in-between our weather recording intervals... More about our weather records

Advertising

Lübeck weather history for previous 24 hours

 ConditionsComfort  
Time TempWeatherWind HumidityBarometerVisibility
7:20 AM
Fri, Sep 4
50 °FClear.6 mph94%29.89 "Hg4 mi
6:50 AM50 °FClear.5 mph94%29.89 "Hg4 mi
9:50 PM
Thu, Sep 3
57 °FPassing clouds.3 mph77%29.92 "HgN/A
9:20 PM57 °FPassing clouds.3 mph77%29.92 "HgN/A
8:50 PM57 °FSunny.2 mph72%29.92 "Hg10 mi
8:20 PM59 °FSunny.3 mph68%29.89 "Hg10 mi
7:50 PM59 °FSunny.3 mph68%29.89 "Hg10 mi
7:20 PM61 °FPassing clouds.6 mph63%29.89 "HgN/A
6:50 PM63 °FSunny.3 mph59%29.89 "Hg10 mi
6:20 PM64 °FPassing clouds.6 mph56%29.89 "HgN/A
5:20 PM64 °FPassing clouds.7 mph56%29.89 "HgN/A
4:50 PM63 °FPassing clouds.7 mph59%29.89 "HgN/A
4:20 PM64 °FPassing clouds.5 mph60%29.92 "HgN/A
3:50 PM63 °FPassing clouds.7 mph59%29.92 "HgN/A
3:20 PM64 °FPassing clouds.7 mph60%29.92 "HgN/A
2:50 PM64 °FPassing clouds.6 mph60%29.92 "HgN/A
2:20 PM63 °FPassing clouds.8 mph59%29.92 "HgN/A
1:50 PM61 °FPartly sunny.8 mph68%29.92 "HgN/A
1:20 PM59 °FPartly sunny.7 mph72%29.95 "HgN/A
12:50 PM61 °FPassing clouds.8 mph68%29.95 "HgN/A
12:20 PM59 °FPassing clouds.7 mph77%29.95 "HgN/A
11:50 AM59 °FPassing clouds.7 mph77%29.95 "HgN/A
11:20 AM57 °FPassing clouds.5 mph77%29.95 "HgN/A
10:50 AM57 °FSunny.7 mph77%29.95 "Hg10 mi
10:20 AM55 °FPassing clouds.6 mph82%29.95 "HgN/A
9:50 AM55 °FSunny.7 mph82%29.95 "Hg10 mi
9:20 AM54 °FPassing clouds.6 mph88%29.95 "HgN/A
8:50 AM52 °FSunny.5 mph94%29.95 "Hg10 mi
8:20 AM52 °FSunny.2 mph88%29.95 "Hg10 mi
Weather by CustomWeather, © 2015

See weather overviewHow to use our weather pages